When you browse on this site, cookies collect data to enhance your experience and personalize the content and advertising you see.
Visit our Privacy Policy to learn more. By continuing to use the site, you agree to this use of cookies and data.
  • In Austria
  • List of Countries
  • For 7 days
  • Water Temperature
  • Satellite Maps
  • Weather Map
  • News
  • Weather Widgets
  • user-avatar
    Login

    Hourly Weather Soma Bey

    Today, 16 January, Wednesday

    Time Temperature Precipitation Wind Pressure Humidity
    00:00 +13°C° 0 mm 5 mps 752 mmHg 34%
    01:00 +12°C° 0 mm 5 mps 752 mmHg 34%
    02:00 +12°C° 0 mm 5 mps 752 mmHg 36%
    03:00 +12°C° 0 mm 5 mps 752 mmHg 36%
    04:00 +12°C° 0 mm 5 mps 752 mmHg 36%
    05:00 +10°C° 0 mm 5 mps 752 mmHg 37%
    06:00 +12°C° 0 mm 5 mps 752 mmHg 34%
    07:00 +12°C° 0 mm 5 mps 752 mmHg 31%
    08:00 +13°C° 0 mm 5 mps 752 mmHg 29%
    09:00 +15°C° 0 mm 6 mps 752 mmHg 25%
    10:00 +17°C° 0 mm 6 mps 752 mmHg 22%
    11:00 +19°C° 0 mm 6 mps 753 mmHg 19%
    12:00 +20°C° 0 mm 7 mps 752 mmHg 20%
    13:00 +20°C° 0 mm 8 mps 752 mmHg 20%
    14:00 +21°C° 0 mm 8 mps 752 mmHg 21%
    15:00 +20°C° 0 mm 8 mps 752 mmHg 25%
    16:00 +20°C° 0 mm 8 mps 752 mmHg 28%
    17:00 +18°C° 0 mm 8 mps 752 mmHg 31%
    18:00 +17°C° 0 mm 8 mps 752 mmHg 31%
    19:00 +16°C° 0 mm 8 mps 752 mmHg 31%
    20:00 +15°C° 0 mm 8 mps 753 mmHg 31%
    21:00 +14°C° 0 mm 7 mps 753 mmHg 32%
    22:00 +13°C° 0 mm 6 mps 754 mmHg 34%
    23:00 +12°C° 0 mm 5 mps 754 mmHg 35%

    Tomorrow, 17 January, Thursday

    Time Temperature Precipitation Wind Pressure Humidity
    00:00 +10°C° 0 mm 5 mps 754 mmHg 37%
    01:00 +10°C° 0 mm 4 mps 755 mmHg 40%
    02:00 +10°C° 0 mm 3 mps 755 mmHg 42%
    03:00 +9°C° 0 mm 3 mps 755 mmHg 44%
    04:00 +9°C° 0 mm 3 mps 755 mmHg 45%
    05:00 +8°C° 0 mm 3 mps 755 mmHg 47%
    06:00 +9°C° 0 mm 3 mps 755 mmHg 45%
    07:00 +10°C° 0 mm 4 mps 756 mmHg 42%
    08:00 +11°C° 0 mm 4 mps 756 mmHg 39%
    09:00 +12°C° 0 mm 4 mps 756 mmHg 36%
    10:00 +14°C° 0 mm 4 mps 756 mmHg 33%
    11:00 +15°C° 0 mm 4 mps 756 mmHg 30%
    12:00 +16°C° 0 mm 5 mps 755 mmHg 28%
    13:00 +17°C° 0 mm 5 mps 755 mmHg 27%
    14:00 +19°C° 0 mm 5 mps 754 mmHg 25%
    15:00 +19°C° 0 mm 5 mps 754 mmHg 27%
    16:00 +17°C° 0 mm 5 mps 754 mmHg 30%
    17:00 +17°C° 0 mm 5 mps 754 mmHg 33%
    18:00 +16°C° 0 mm 5 mps 754 mmHg 37%
    19:00 +15°C° 0 mm 5 mps 755 mmHg 42%
    20:00 +14°C° 0 mm 4 mps 755 mmHg 47%
    21:00 +13°C° 0 mm 4 mps 755 mmHg 48%
    22:00 +13°C° 0 mm 4 mps 755 mmHg 49%
    23:00 +12°C° 0 mm 4 mps 755 mmHg 51%

    Day after tomorrow, 18 January, Friday

    Time Temperature Precipitation Wind Pressure Humidity
    00:00 +12°C° 0 mm 4 mps 755 mmHg 52%
    01:00 +12°C° 0 mm 4 mps 754 mmHg 53%
    02:00 +11°C° 0 mm 4 mps 754 mmHg 54%
    03:00 +11°C° 0 mm 4 mps 754 mmHg 57%
    04:00 +11°C° 0 mm 4 mps 754 mmHg 59%
    05:00 +10°C° 0 mm 4 mps 753 mmHg 61%
    06:00 +12°C° 0 mm 4 mps 754 mmHg 58%
    07:00 +13°C° 0 mm 4 mps 754 mmHg 55%
    08:00 +14°C° 0 mm 4 mps 755 mmHg 52%
    09:00 +15°C° 0 mm 4 mps 754 mmHg 47%
    10:00 +18°C° 0 mm 4 mps 754 mmHg 43%
    11:00 +19°C° 0 mm 4 mps 754 mmHg 38%
    12:00 +20°C° 0 mm 5 mps 754 mmHg 36%
    13:00 +21°C° 0 mm 5 mps 753 mmHg 34%
    14:00 +21°C° 0 mm 5 mps 752 mmHg 31%
    15:00 +21°C° 0 mm 5 mps 752 mmHg 35%
    16:00 +20°C° 0 mm 5 mps 752 mmHg 39%
    17:00 +19°C° 0 mm 5 mps 752 mmHg 43%
    18:00 +18°C° 0 mm 4 mps 753 mmHg 47%
    19:00 +17°C° 0 mm 4 mps 753 mmHg 51%
    20:00 +15°C° 0 mm 4 mps 753 mmHg 56%
    21:00 +15°C° 0 mm 4 mps 753 mmHg 56%
    22:00 +14°C° 0 mm 4 mps 753 mmHg 57%
    23:00 +14°C° 0 mm 3 mps 753 mmHg 57%

    19 January, Saturday

    Time Temperature Precipitation Wind Pressure Humidity
    00:00 +13°C° 0 mm 4 mps 753 mmHg 56%
    01:00 +13°C° 0 mm 4 mps 753 mmHg 56%
    02:00 +13°C° 0 mm 4 mps 752 mmHg 55%
    03:00 +12°C° 0 mm 4 mps 752 mmHg 55%
    04:00 +12°C° 0 mm 4 mps 752 mmHg 55%
    05:00 +12°C° 0 mm 4 mps 752 mmHg 55%
    06:00 +13°C° 0 mm 4 mps 753 mmHg 50%
    07:00 +14°C° 0 mm 4 mps 753 mmHg 45%
    08:00 +15°C° 0 mm 4 mps 753 mmHg 41%
    09:00 +18°C° 0 mm 4 mps 753 mmHg 37%
    10:00 +19°C° 0 mm 4 mps 753 mmHg 32%
    11:00 +21°C° 0 mm 4 mps 753 mmHg 28%
    12:00 +21°C° 0 mm 4 mps 753 mmHg 27%
    13:00 +22°C° 0 mm 5 mps 752 mmHg 27%
    14:00 +23°C° 0 mm 5 mps 751 mmHg 26%
    15:00 +22°C° 0 mm 4 mps 751 mmHg 30%
    16:00 +21°C° 0 mm 4 mps 751 mmHg 34%
    17:00 +20°C° 0 mm 4 mps 751 mmHg 38%
    18:00 +19°C° 0 mm 3 mps 752 mmHg 42%
    19:00 +18°C° 0 mm 3 mps 752 mmHg 47%
    20:00 +17°C° 0 mm 3 mps 753 mmHg 51%
    21:00 +16°C° 0 mm 3 mps 753 mmHg 52%
    22:00 +16°C° 0 mm 2 mps 753 mmHg 53%
    23:00 +15°C° 0 mm 2 mps 753 mmHg 54%

    20 January, Sunday

    Time Temperature Precipitation Wind Pressure Humidity
    00:00 +15°C° 0 mm 2 mps 753 mmHg 53%
    01:00 +14°C° 0 mm 2 mps 752 mmHg 51%
    02:00 +14°C° 0 mm 2 mps 752 mmHg 50%
    03:00 +14°C° 0 mm 2 mps 752 mmHg 48%
    04:00 +13°C° 0 mm 2 mps 752 mmHg 47%
    05:00 +12°C° 0 mm 3 mps 752 mmHg 45%
    06:00 +15°C° 0 mm 2 mps 753 mmHg 40%
    07:00 +16°C° 0 mm 2 mps 753 mmHg 35%
    08:00 +18°C° 0 mm 2 mps 753 mmHg 30%
    09:00 +19°C° 0 mm 2 mps 753 mmHg 27%
    10:00 +21°C° 0 mm 3 mps 754 mmHg 23%
    11:00 +24°C° 0 mm 3 mps 754 mmHg 20%
    12:00 +24°C° 0 mm 3 mps 753 mmHg 20%
    13:00 +25°C° 0 mm 3 mps 752 mmHg 20%
    14:00 +25°C° 0 mm 4 mps 752 mmHg 20%
    15:00 +25°C° 0 mm 3 mps 752 mmHg 24%
    16:00 +24°C° 0 mm 3 mps 752 mmHg 29%
    17:00 +22°C° 0 mm 3 mps 752 mmHg 34%
    18:00 +20°C° 0 mm 2 mps 752 mmHg 39%
    19:00 +19°C° 0 mm 2 mps 753 mmHg 44%
    20:00 +19°C° 0 mm 1 mps 753 mmHg 50%
    21:00 +18°C° 0 mm 1 mps 753 mmHg 50%
    22:00 +18°C° 0 mm 1 mps 753 mmHg 50%
    23:00 +16°C° 0 mm 1 mps 753 mmHg 51%

    21 January, Monday

    Time Temperature Precipitation Wind Pressure Humidity
    00:00 +16°C° 0 mm 1 mps 753 mmHg 49%
    01:00 +16°C° 0 mm 1 mps 752 mmHg 47%
    02:00 +16°C° 0 mm 2 mps 752 mmHg 46%
    03:00 +16°C° 0 mm 2 mps 752 mmHg 46%
    04:00 +15°C° 0 mm 2 mps 752 mmHg 46%
    05:00 +15°C° 0 mm 2 mps 752 mmHg 47%
    06:00 +17°C° 0 mm 2 mps 753 mmHg 42%
    07:00 +18°C° 0 mm 2 mps 753 mmHg 37%
    08:00 +20°C° 0 mm 2 mps 753 mmHg 32%
    09:00 +21°C° 0 mm 3 mps 753 mmHg 29%
    10:00 +24°C° 0 mm 3 mps 753 mmHg 25%
    11:00 +25°C° 0 mm 4 mps 753 mmHg 22%
    12:00 +26°C° 0 mm 4 mps 753 mmHg 22%
    13:00 +26°C° 0 mm 4 mps 752 mmHg 22%
    14:00 +27°C° 0 mm 4 mps 751 mmHg 21%
    15:00 +26°C° 0 mm 3 mps 752 mmHg 25%
    16:00 +25°C° 0 mm 3 mps 752 mmHg 29%
    17:00 +24°C° 0 mm 3 mps 752 mmHg 33%
    18:00 +23°C° 0 mm 2 mps 752 mmHg 37%
    19:00 +20°C° 0 mm 2 mps 752 mmHg 42%
    20:00 +19°C° 0 mm 2 mps 753 mmHg 47%
    21:00 +19°C° 0 mm 2 mps 753 mmHg 47%
    22:00 +18°C° 0 mm 2 mps 753 mmHg 47%
    23:00 +18°C° 0 mm 2 mps 753 mmHg 47%
    Show more